Battle Creek, MI

3:28 AM EDT on September 19, 2019 (GMT -0400)
Kellogg

Weather History for KBTL - August, 2019

Change the Weather History Date:

Sunday, August 25, 2019

  Actual Average Record
Temperature  
Mean Temperature 66 °F 68 °F  
Max Temperature 78 °F 80 °F 90 °F (2012)
Min Temperature 54 °F 57 °F 46 °F (2017)
Degree Days  
Heating Degree Days 0 1  
Month to date heating degree days 3 25  
Since 1 June heating degree days 49 97  
Since 1 July heating degree days 3 40  
Cooling Degree Days 1 4  
Month to date cooling degree days 168 136  
Year to date cooling degree days 643 497  
Since 1 June cooling degree days 627 459  
Growing Degree Days 16 (Base 50)    
Moisture  
Dew Point 53 °F    
Average Humidity 67    
Maximum Humidity 93    
Minimum Humidity 40    
Precipitation  
Precipitation 0.00 in 0.11 in 1.14 in (2004)
Month to date precipitation 1.56 2.79  
Year to date precipitation 21.91 20.86  
Sea Level Pressure  
Sea Level Pressure 30.16 in    
Wind  
Wind Speed 8 mph (ESE)    
Max Wind Speed 17 mph    
Max Gust Speed 25 mph    
Visibility 10 miles    
Events      
T = Trace of Precipitation, MM = Missing Value Source: NWS Daily Summary

Daily Weather History Graph

Daily Weather History Graph

Search for Another Location

Airport or City:

Astronomy

Aug. 25, 2019 Rise Set
Actual Time 6:58 AM EDT 8:26 PM EDT
Civil Twilight 6:29 AM EDT 8:56 PM EDT
Nautical Twilight 5:53 AM EDT 9:31 PM EDT
Astronomical Twilight 5:16 AM EDT 10:08 PM EDT
Moon 1:29 AM EDT (8/25) 4:50 PM EDT (8/25)
Length of Visible Light 14h 26m
Length of Day
13h 28m
Waning Crescent, 29% of the Moon is Illuminated
Aug 25
Waning Crescent
Aug 30
New
Sep 5
First Quarter
Sep 14
Full
Sep 21
Last Quarter

Hourly Weather History & Observations

Time (EDT) Temp. Dew Point Humidity Pressure Visibility Wind Dir Wind Speed Gust Speed Precip Events Conditions
12:53 AM 60.1 °F 53.1 °F 78% 30.24 in 10.0 mi East 4.6 mph - N/A   Clear
1:53 AM 59.0 °F 52.0 °F 78% 30.24 in 10.0 mi ESE 3.5 mph - N/A   Clear
2:53 AM 55.9 °F 52.0 °F 87% 30.24 in 10.0 mi Calm Calm - N/A   Clear
3:53 AM 57.0 °F 52.0 °F 83% 30.22 in 10.0 mi East 3.5 mph - N/A   Clear
4:53 AM 55.9 °F 52.0 °F 87% 30.21 in 10.0 mi East 4.6 mph - N/A   Clear
5:53 AM 55.0 °F 52.0 °F 89% 30.21 in 10.0 mi East 4.6 mph - N/A   Clear
6:53 AM 54.0 °F 52.0 °F 93% 30.21 in 10.0 mi ENE 3.5 mph - N/A   Clear
7:53 AM 55.9 °F 53.1 °F 90% 30.22 in 10.0 mi East 4.6 mph - N/A   Clear
8:53 AM 60.1 °F 55.0 °F 83% 30.22 in 10.0 mi East 6.9 mph - N/A   Clear
9:53 AM 66.0 °F 55.9 °F 70% 30.21 in 10.0 mi East 10.4 mph - N/A   Clear
10:53 AM 69.1 °F 54.0 °F 58% 30.21 in 10.0 mi SE 8.1 mph - N/A   Clear
11:53 AM 73.0 °F 52.0 °F 48% 30.20 in 10.0 mi SE 11.5 mph 18.4 mph N/A   Clear
12:53 PM 73.9 °F 52.0 °F 46% 30.18 in 10.0 mi ESE 12.7 mph - N/A   Partly Cloudy
1:53 PM 75.0 °F 53.1 °F 46% 30.15 in 10.0 mi ESE 15.0 mph 21.9 mph N/A   Clear
2:53 PM 75.0 °F 53.1 °F 46% 30.13 in 10.0 mi ESE 12.7 mph 25.3 mph N/A   Clear
3:53 PM 75.0 °F 54.0 °F 48% 30.12 in 10.0 mi East 9.2 mph 20.7 mph N/A   Scattered Clouds
4:53 PM 77.0 °F 52.0 °F 42% 30.09 in 10.0 mi East 11.5 mph 20.7 mph N/A   Clear
5:53 PM 75.0 °F 53.1 °F 46% 30.08 in 10.0 mi SE 12.7 mph 21.9 mph N/A   Partly Cloudy
6:53 PM 73.9 °F 53.1 °F 48% 30.08 in 10.0 mi SE 10.4 mph - N/A   Clear
7:53 PM 72.0 °F 52.0 °F 49% 30.08 in 10.0 mi ESE 11.5 mph - N/A   Clear
8:53 PM 69.1 °F 53.1 °F 57% 30.08 in 10.0 mi ESE 9.2 mph - N/A   Clear
9:53 PM 66.9 °F 54.0 °F 63% 30.09 in 10.0 mi East 6.9 mph - N/A   Clear
10:53 PM 64.9 °F 54.0 °F 68% 30.08 in 10.0 mi ESE 9.2 mph - N/A   Clear
11:53 PM 64.0 °F 55.0 °F 73% 30.07 in 10.0 mi East 6.9 mph - N/A   Clear